Flight Track Log - Related Links

Times and Time Zones

All times are in EDT time to prevent confusion due to time zone crossing. See the FDX562 flight status page for this flight to view local times or setup timezone preferences in your user account.


Time Position Orientation Groundspeed Altitude Reporting Facility
EDT Latitude Longitude Course Direction KTS MPH feet Rate Location/Type
Thu 05:49:16 PM 35.0333 -89.9667 180° South 165 190 1,000  Level Memphis TRACON
Thu 05:50:16 PM 34.9667 -89.9667 180° South 221 254 3,800 3,500 Climbing Memphis TRACON
Thu 05:51:16 PM 34.9167 -89.9000 132° Southeast 312 359 8,000 4,206 Climbing Memphis TRACON
Thu 05:52:03 PM 34.9217 -89.8200 86° East 306 352 11,300 3,193 Climbing Memphis Center
Thu 05:53:05 PM 34.9542 -89.6947 72° East 377 434 13,800 2,226 Climbing Memphis Center
Thu 05:54:07 PM 35.0083 -89.5661 63° Northeast 411 473 15,900 1,680 Climbing Memphis Center
Thu 05:55:10 PM 35.0639 -89.4333 63° Northeast 432 497 17,300 2,304 Climbing Memphis Center
Thu 05:56:12 PM 35.1097 -89.2931 68° East 446 513 20,700 2,710 Climbing Memphis Center
Thu 05:57:14 PM 35.0797 -89.1467 104° East 456 525 22,900 1,500 Climbing Memphis Center
Thu 05:58:16 PM 34.9842 -89.0375 137° Southeast 465 535 23,800 1,610 Climbing Memphis Center
Thu 05:59:17 PM 34.8664 -88.9053 137° Southeast 472 543 26,200 2,488 Climbing Memphis Center
Thu 06:00:19 PM 34.7647 -88.7928 138° Southeast 485 558 28,900 1,244 Climbing Memphis Center
Thu 06:06:38 PM 34.1452 -88.1042 138° Southeast 37,000 1,059 Climbing FlightAware ADS-B (KMDQ)
Thu 06:07:58 PM 34.0159 -87.9622 138° Southeast 345 397 37,000  Level FlightAware ADS-B (KMDQ)
Thu 06:08:35 PM 33.9592 -87.9017 138° Southeast 471 542 37,000  Level Memphis Center
Thu 06:09:37 PM 33.8642 -87.7964 137° Southeast 471 542 37,000  Level Memphis Center
Thu 06:17:25 PM 33.1617 -86.9147 137° Southeast 460 529 37,000  Level Atlanta Center
Thu 06:18:25 PM 33.0767 -86.8006 132° Southeast 460 529 37,000  Level Atlanta Center
Thu 06:19:25 PM 32.9936 -86.6764 129° Southeast 457 526 37,000  Level Atlanta Center
Thu 06:20:25 PM 32.9083 -86.5675 133° Southeast 457 526 37,000  Level Atlanta Center
Thu 06:21:25 PM 32.8103 -86.4658 139° Southeast 457 526 37,000  Level Atlanta Center
Thu 06:22:25 PM 32.7097 -86.3692 141° Southeast 462 532 37,000  Level Atlanta Center
Thu 06:23:25 PM 32.6092 -86.2753 142° Southeast 462 532 37,000  Level Atlanta Center
Thu 06:24:25 PM 32.5292 -86.1969 140° Southeast 462 532 37,000  Level Atlanta Center
Thu 06:25:25 PM 32.4058 -86.0833 142° Southeast 474 545 37,000  Level Atlanta Center
Thu 06:26:25 PM 32.3031 -85.9900 142° Southeast 469 540 37,000  Level Atlanta Center
Thu 06:28:15 PM 32.1328 -85.8217 140° Southeast 446 513 37,000  Level Jacksonville Center
Thu 06:29:15 PM 32.0325 -85.7303 142° Southeast 451 519 37,000  Level Jacksonville Center
Thu 06:30:15 PM 31.9342 -85.6392 142° Southeast 456 525 37,000  Level Jacksonville Center
Thu 06:31:15 PM 31.8319 -85.5458 142° Southeast 456 525 37,000  Level Jacksonville Center
Thu 06:32:15 PM 31.7356 -85.4550 141° Southeast 456 525 37,000  Level Jacksonville Center
Thu 06:33:15 PM 31.6353 -85.3619 142° Southeast 456 525 37,000  Level Jacksonville Center
Thu 06:34:15 PM 31.5367 -85.2717 142° Southeast 456 525 37,000  Level Jacksonville Center
Thu 06:35:15 PM 31.4361 -85.1789 142° Southeast 456 525 37,000  Level Jacksonville Center
Thu 06:42:40 PM 30.6436 -84.5485 147° Southeast 442 509 37,000  Level FlightAware ADS-B
Thu 06:43:13 PM 30.5744 -84.4971 147° Southeast 473 544 37,000  Level FlightAware ADS-B
Thu 06:43:59 PM 30.4896 -84.4342 148° Southeast 545 627 37,000  Level FlightAware ADS-B
Thu 06:44:33 PM 30.4333 -84.3925 147° Southeast 490 564 37,000  Level FlightAware ADS-B
Thu 06:45:10 PM 30.3618 -84.3396 147° Southeast 475 547 37,000  Level FlightAware ADS-B
Thu 06:45:42 PM 30.3037 -84.2969 148° Southeast 468 539 37,000  Level FlightAware ADS-B
Thu 06:46:13 PM 30.2543 -84.2605 148° Southeast 509 586 37,000  Level FlightAware ADS-B
Thu 06:46:52 PM 30.1760 -84.2030 148° Southeast 470 541 37,000  Level FlightAware ADS-B
Thu 06:47:23 PM 30.1194 -84.1615 148° Southeast 518 596 37,000  Level FlightAware ADS-B
Thu 06:47:53 PM 30.0653 -84.1218 148° Southeast 489 563 37,000  Level FlightAware ADS-B
Thu 06:48:31 PM 29.9935 -84.0691 148° Southeast 443 510 37,000  Level FlightAware ADS-B
Thu 06:49:15 PM 29.9172 -84.0164 148° Southeast 468 539 37,000  Level Jacksonville Center
Thu 06:50:15 PM 29.8072 -83.9361 148° Southeast 468 539 37,000  Level Jacksonville Center
Thu 06:51:15 PM 29.6931 -83.8514 147° Southeast 468 539 37,000 -300 Level Jacksonville Center
Thu 06:52:15 PM 29.5808 -83.7739 149° Southeast 474 545 36,400 -900 Descending Jacksonville Center
Thu 06:53:15 PM 29.4706 -83.6917 147° Southeast 474 545 35,200 -2,200 Descending Jacksonville Center
Thu 06:54:15 PM 29.3583 -83.6097 148° Southeast 474 545 32,000 -3,500 Descending Jacksonville Center
Thu 06:55:15 PM 29.2461 -83.5306 148° Southeast 474 545 28,200 -2,600 Descending Jacksonville Center
Thu 06:56:15 PM 29.1317 -83.4536 150° Southeast 474 545 26,800 -2,150 Descending Jacksonville Center
Thu 06:57:15 PM 29.0214 -83.3864 152° Southeast 486 559 23,900 -2,650 Descending Jacksonville Center
Thu 06:58:15 PM 28.9089 -83.3125 150° Southeast 476 548 21,500 -2,150 Descending Jacksonville Center
Thu 06:59:15 PM 28.8006 -83.2456 152° Southeast 463 533 19,600 -1,900 Descending Jacksonville Center
Thu 07:00:15 PM 28.6942 -83.1767 150° Southeast 450 518 17,700 -1,800 Descending Jacksonville Center
Thu 07:01:15 PM 28.5983 -83.1147 150° Southeast 423 487 16,000 -1,691 Descending Jacksonville Center
Thu 07:02:05 PM 28.5167 -83.0667 153° Southeast 367 422 14,600 -1,615 Descending Tampa TRACON
Thu 07:02:59 PM 28.4333 -83.0167 152° Southeast 351 404 13,200 -1,579 Descending Tampa TRACON
Thu 07:03:59 PM 28.3500 -82.9667 152° Southeast 328 377 11,600 -1,100 Descending Tampa TRACON
Thu 07:04:59 PM 28.2833 -82.9167 147° Southeast 303 349 11,000 -452 Descending Tampa TRACON
Thu 07:05:32 PM 28.2589 -82.8847 131° Southeast 303 349 10,900 -319 Descending Miami Center
Thu 07:06:33 PM 28.1861 -82.8044 136° Southeast 303 349 10,500 -878 Descending Miami Center
Thu 07:07:35 PM 28.1258 -82.7392 136° Southeast 302 348 9,100 -1,366 Descending Miami Center
Thu 07:08:36 PM 28.0667 -82.6767 137° Southeast 295 339 7,700 -1,317 Descending Miami Center
Thu 07:09:38 PM 27.9950 -82.6400 156° South 287 330 6,400 -1,306 Descending Miami Center
Thu 07:10:40 PM 27.9178 -82.6328 175° South 282 325 5,000 -1,463 Descending Miami Center
Thu 07:11:41 PM 27.8425 -82.6264 176° South 277 319 3,400 -1,164 Descending Miami Center
Thu 07:12:54 PM 27.8333 -82.5500 98° East 225 259 2,400 -614 Descending Tampa TRACON
Thu 07:13:48 PM 27.8833 -82.5500 360° North 177 204 2,100 -950 Descending Tampa TRACON
Thu 07:14:54 PM 27.9333 -82.5500 360° North 141 162 500 -1,455 Descending Tampa TRACON
Thu 07:17:00 PM 27.9755 -82.5332 19° North  Level Estimated

Login

Don't have an account? Register now (free) for customized features, flight alerts, and more!